Regional Weather Roundup
Issued by NWS Grand Forks, ND

Home | Current Version | Previous Version | Text Only | Print | Product List | Glossary Off
Versions: 1 2 3 4 5 6 7 8 9 10 11 12 13 14 15 16 17 18 19 20 21 22 23 24 25 26 27 28 29 30 31 32 33 34 35 36 37 38 39 40 41 42 43 44 45 46 47 48 49 50

000
ASUS43 KFGF 080310
RWRFGF
PRAIRIE TO PINES  WEATHER ROUNDUP
NATIONAL WEATHER SERVICE EASTERN NORTH DAKOTA/GRAND FORKS ND
900 PM CST WED DEC 07 2016

 **SATELLITE DATA USED TO AUGMENT SKY COVER AT AUTOMATED STATIONS**
 *****  WEATHER ACROSS EASTERN NORTH DAKOTA  *****

CITY           SKY/WX    TMP DP  RH WIND       PRES   REMARKS
GRAND FORKS    CLOUDY    20  16  84 NW23G31   30.17R BLWGSNOWWCI   3
GRAND FRKS AFB LGT SNOW  19  16  86 N20G29    30.19R WCI   4
DEVILS LAKE    LGT SNOW  13  10  88 NW22      30.25R FOG     WCI  -6
FARGO          LGT SNOW  19  14  81 NW23      30.18R WCI   2
WAHPETON ARPT  CLOUDY    14  10  85 NW24G33   30.20R WCI  -5
$$

 ***** WEATHER ACROSS CENTRAL AND WESTERN NORTH DAKOTA  *****

CITY           SKY/WX    TMP DP  RH WIND       PRES   REMARKS
BISMARCK       MIX PCPN   4  -1  80 NW15G24   30.44R WCI -14
MINOT          LGT SNOW   6   1  80 W33       30.40R WCI -19
JAMESTOWN      LGT SNOW   8   5  87 NW29G36   30.26R FOG     WCI -15
MINOT AFB      DRIZZLE    5   0  81 NW29      30.39R WCI -19
GARRISON         N/A      3  -1  83 NW28G36   30.41R WCI -21
WILLISTON      CLOUDY     2  -6  69 NW17      30.56R WCI -18
DICKINSON      CLOUDY     0  -6  76 W26       30.42R WCI -25
HETTINGER      PTCLDY     0  -6  76 NW18      30.45R WCI -21
$$

 *****  OTHER AIRPORT OBSERVATIONS IN OUR AREA  *****

CITY           SKY/WX    TMP DP  RH WIND       PRES   REMARKS
WALHALLA       LGT SNOW  18  18 100 NW23G32   30.23R WCI   0
GRAFTON AIRPOR LGT SNOW  19  18  93 NW18G26   30.21R WCI   4
VALLEY CITY AR LGT SNOW   9   7  92 NW28G39   30.25R WCI -13
CANDO          CLOUDY    14  10  85 NW28G36   30.30R WCI  -6
CAVALIER APRT  LGT SNOW  19  18  93 NW25      30.21R WCI   2
GWINNER        CLOUDY    14  10  85 NW29      30.25R WCI  -7
SHEYENNE NWR     N/A     11   5  77 NW17      29.95S WCI  -6
ROLLA          LGT SNOW   9   7  92 NW37G43   30.27R VSB 1   WCI -16
 ***** THE ABOVE OBSERVATIONS ARE NON NWS ARE NOT QUALITY
       CONTROLLED AND MAY MIS-REPORT RAIN FOR SNOW...
$$

  *****  WEATHER ACROSS NORTHERN MINNESOTA  *****

CITY           SKY/WX    TMP DP  RH WIND       PRES   REMARKS
FLAG ISLAND    CLOUDY    21  18  86 N22       30.04R WCI   5
WARROAD        CLOUDY    19  16  86 NW12G20   30.06R WCI   7
ROSEAU         LGT SNOW  19  16  86 N18G24    30.08R WCI   4
HALLOCK          N/A     21  18  86 NW23G29   30.15R WCI   5
THF RVR FALLS  FLURRIES  20  17  88 NW17      30.10R WCI   5
BAUDETTE       LGT SNOW  22  17  81 N15G25    29.99R WCI   9
WASKISH        LGT SNOW  21  19  93 NW13G20   29.99R WCI   9
CROOKSTON      LGT SNOW  21  19  93 N26G35    30.14R WCI   4
$$
  *****  WEATHER ACROSS CENTRAL AND WEST MINNESOTA  *****

CITY           SKY/WX    TMP DP  RH WIND       PRES   REMARKS
FOSSTON        LGT SNOW  18  16  93 NW15G21   30.06R WCI   3
BEMIDJI        LGT SNOW  20  18  90 NW15      29.99R WCI   6
PARK RAPIDS    LGT SNOW  18  11  74 NW17      30.01R WCI   3
ELBOW LAKE     LGT SNOW  12  10  91 NW17      30.16S WCI  -6
WADENA         LGT SNOW  14  10  85 W12G17    30.05S WCI   0
DETROIT LAKES  LGT SNOW  18  16  93 NW23G30   30.08R WCI   0
MOORHEAD       MIX PCPN  16  14  93 NW21      30.17R WCI  -2
FERGUS FALLS   LGT SNOW  12  10  92 NW23      30.20R WCI  -7
MORRIS MN      LGT SNOW  12   9  85 W23G29    30.18R VSB 3/4 WCI  -7
STAPLES        FLURRIES  12  10  92 W15       30.04S WCI  -4
$$
  *****  WEATHER ELSEWHERE ACROSS MINNESOTA  *****

CITY           SKY/WX    TMP DP  RH WIND       PRES   REMARKS
DULUTH         LGT SNOW  17  13  84 W16G24    29.88R FOG     WCI   2
INTRNTL FALLS  LGT SNOW  23  19  85 N14       29.93R VSB 3/4 WCI  11
ELY            LGT SNOW  19  18  93 NW6       29.83R WCI  11
CLOQUET        LGT SNOW  16  10  79 W10       29.91S WCI   3
WHEATON        LGT SNOW  14  12  92 W24       30.23S WCI  -5
BRAINERD       LGT SNOW  16  11  80 W13       30.02R WCI   2
HIBBING        LGT SNOW  19  16  88 W7        29.89R FOG     WCI  10
ALEXANDRIA     LGT SNOW  11   8  88 NW21G30   30.11S FOG     WCI  -8
SAINT CLOUD    FLURRIES  15   8  73 W18G30    30.09S WCI  -2
MINNEAPOLIS    FLURRIES  16   8  71 W16       30.12S WCI   1
$$

  *****  WEATHER ACROSS SOUTH DAKOTA  *****

CITY           SKY/WX    TMP DP  RH WIND       PRES   REMARKS
SIOUX FALLS    PTCLDY    11   3  70 NW18G37   30.32R WCI  -7
BROOKINGS      CLEAR      7   1  76 NW24G35   30.26R WCI -14
WATERTOWN      CLOUDY     6   1  80 W21G30    30.25R WCI -14
HURON          MIX PCPN   8   4  83 NW21      30.40R FOG     WCI -12
SISSETON         N/A     12   6  77 NW26G36   30.22R WCI  -8
ABERDEEN       LGT SNOW   9   2  73 NW25G36   30.34S WCI -12
MITCHELL       CLEAR     10   2  69 NW22      30.43R WCI -10
PIERRE         MOCLDY     9   1  70 NW31G41   30.45S WCI -14
MOBRIDGE       CLEAR      5  -4  66 NW29      30.40R WCI -19
RAPID CITY     CLEAR      1  -6  72 N9        30.44S WCI -14
$$

  *****  SOME WEATHER IN NEARBY STATES *****

CITY           SKY/WX    TMP DP  RH WIND       PRES   REMARKS
GLASGOW MT     CLEAR     -1  -9  68 W13       30.60R WCI -19
GREAT FALLS MT CLOUDY     0  -6  76 CALM      30.52R
CHEYENNE WY    CLOUDY   -11 -16  78 W7        30.27R WCI -26
SCOTTSBLUFF NE CLEAR      0  -7  72 W9        30.44R WCI -15
OMAHA NE       CLEAR     19   5  54 W17G23    30.42R WCI   4
DES MOINES IA  CLEAR     20   8  60 NW22G30   30.32S WCI   3
DAVENPORT IA   CLOUDY    23  14  68 W20G29    30.23R WCI   8
CHICAGO IL     CLOUDY    22  13  68 W23G35    30.14R WCI   6
EAU CLAIRE WI  CLOUDY    18  10  71 W21       30.05R WCI   1
LA CROSSE WI   CLOUDY    22  12  65 W18G25    30.13R WCI   7
$$

  *****  SOME NATIONAL WEATHER *****

CITY           SKY/WX    TMP DP  RH WIND       PRES   REMARKS
LA GUARDIA NY  CLOUDY    46  35  65 CALM      30.02F
RALEIGH NC     MOCLDY    47  42  83 CALM      30.07F
ATLANTA GA     PTCLDY    47  42  83 NW9       30.11R
NEW ORLEANS LA CLOUDY    60  58  92 NE7       30.14S
OKLAHOMA CITY  CLOUDY    31  20  63 N16       30.40R WCI  20
ALBUQUERQUE NM CLOUDY    38  17  42 N6        30.18R
SALT LAKE CITY CLEAR     22  11  62 SE5       30.32S WCI  16
LOS ANGELES CA MOCLDY    58  51  78 NW5       30.13R
BOISE ID       CLEAR     20  13  74 SE8       30.36S WCI  10
SEATTLE WA     CLEAR     32  16  51 NE15      30.32F WCI  22
$$

*** WEATHER ACROSS MANITOBA...SASKATCHEWAN AND ONTARIO ***
                ***ONTARIO***

CITY           SKY/WX    TMP DP  RH WIND       PRES   REMARKS
GERALDTON      LGT SNOW  23  19  86 N13       29.63R DRFTSNOWWCI  11
THUNDER BAY    FLURRIES  25  21  86 W10       29.76R WCI  15
SIOUX LOOKOUT  LGT SNOW  21  18  86 N9G20     29.89R DRFTSNOWWCI  11
TORONTO        PTCLDY    32  25  74 W12       29.92F WCI  23
BIG TROUT LK   FLURRIES  21  18  86 N13G23    29.96R WCI   9
PICKLE LAKE    NOT AVBL
DRYDEN         LGT SNOW  21  19  93 N9        29.92R WCI  11
KENORA         LGT SNOW  18  16  93 N12G20    30.01R DRFTSNOWWCI   5
$$
                *** MANITOBA***

CITY           SKY/WX    TMP DP  RH WIND       PRES   REMARKS
BRANDON        MOCLDY    10   5  79 NW23      30.34R WCI -10
DAUPHIN        LGT SNOW  14   9  79 N10       30.39R WCI   1
ISLAND LAKE    NOT AVBL
PILOT MOUND      N/A     12  10  92 NW18G24     N/A  WCI  -5
THE PAS        FLURRIES  10   3  72 N15G21    30.48R WCI  -6
THOMPSON       PTCLDY   -11 -17  77 NW8       30.47R WCI -28
WINNIPEG       FLURRIES  18  14  86 NW25      30.20R WCI  -1
LYNN LAKE      MOCLDY   -13 -17  84 N7        30.53R WCI -29
CHURCHILL      SNOW       5   3  92 NW31G41   30.41R VSB 1/8 WCI -19
GILLAM         FLURRIES  -2  -8  78 NW9G18    30.37R WCI -18
$$
                ***SASKATCHEWAN***

CITY           SKY/WX    TMP DP  RH WIND       PRES   REMARKS
ESTEVAN        LGT SNOW   3   0  85 NW25G32   30.47R BLWGSNOWWCI -20
KINDERSLEY     PTCLDY    -9 -15  77 W5        30.60S WCI -21
LLOYDMINSTER   PTCLDY    -8 -13  77 NW8       30.63S WCI -23
PRINCE ALBERT  FLURRIES   0  -8  71 NW9       30.60R WCI -16
REGINA         CLOUDY     3  -2  78 NW17      30.53R WCI -17
YORKTON        CLOUDY     7   3  85 NW15G21   30.44R WCI -11
N. BATTLEFORD  FLURRIES   0  -6  78 NW15      30.64R WCI -20
LA RONGE       PTCLDY    -6 -13  71 NW7       30.64R WCI -20
SASKATOON      PTCLDY    -2  -6  84 NW9       30.62R WCI -18
SWIFT CURRENT  MOCLDY    -8 -11  84 W13       30.53R WCI -28
$$
NOTE: THESE ARE AUTOMATED STATIONS WITH LIMITED QUALITY CONTROL
      "FAIR" INDICATES FEW OR NO CLOUDS BELOW 12,000 FEET WITH NO
      SIGNIFICANT WEATHER AND/OR OBSTRUCTIONS TO VISIBILITY.
      SKY/WX - SKY CONDITION AND SIGNIFICANT WEATHER.
      TMP - AIR TEMPERATURE.    DP   - DEWPOINT TEMPERATURE.
      RH  - RELATIVE HUMIDITY.  PRES - PRESSURE.
      HX  - HEAT INDEX.         WCI  - WIND CHILL INDEX.
$



USA.gov is the U.S. government's official web portal to all federal, state and local government web resources and services.